Location: Invercargill
(46.4000°S, 168.3500°E)
Time: 19:39:23
(UTC+12:00)

Cosmos 1980 - Pass Details

Date: 14 May 2021
Orbit: 838 x 848 km, 71.0° (Epoch: 14 June)

Event Time Altitude Azimuth Distance (km) Brightness Sun altitude
Rises 19:52:11 0° 318° (NW) 3,405 7.5 -25.3°
Reaches altitude 10° 19:54:42 10° 313° (NW) 2,475 6.7 -25.7°
Maximum altitude 20:00:13 50° 237° (WSW) 1,080 4.5 -26.6°
Enters shadow 20:03:33 23° 172° (S) 1,727 5.2 -27.2°
